Weather History for Wolf Creek Pass, CO

Change the Weather History Date:

Friday, October 4, 2013

  Actual Average (KALS) Record (KALS)
Temperature  
Mean Temperature 24 °F 48 °F  
Max Temperature 32 °F 67 °F 77 °F (1987)
Min Temperature 15 °F 29 °F 17 °F (1986)
Degree Days  
Heating Degree Days 42 17  
Month to date heating degree days 66  
Since 1 July heating degree days 497  
Cooling Degree Days 0 0  
Month to date cooling degree days 0  
Year to date cooling degree days 51  
Moisture  
Dew Point 14 °F    
Average Humidity 68    
Maximum Humidity 100    
Minimum Humidity 40    
Precipitation  
Precipitation 0.00 in 0.02 in 0.49 in (1984)
Month to date precipitation 0.09  
Year to date precipitation 5.95  
Snow  
Snow 0.00 in 0.00 in 0.00 in (2002)
Month to date snowfall 0.1  
Since 1 July snowfall 0.1  
Since 1 September snowfall 0.1  
Snow Depth -    
Sea Level Pressure  
Sea Level Pressure 30.11 in    
Wind  
Wind Speed 20 mph (SW)    
Max Wind Speed 40 mph    
Max Gust Speed 63 mph    
Visibility 10 miles    
Events Snow    
T = Trace of Precipitation, MM = Missing Value Source: NWS Daily Summary

Daily Weather History Graph

Daily Weather History Graph

Search for Another Location

Airport:

Trip Planner

Search our weather history database for the weather conditions in past years. The results will help you decide how hot, cold, wet, or windy it might be!

Date:

Astronomy

Oct. 04, 2013 Rise Set
Actual Time 7:05 AM MDT 6:45 PM MDT
Civil Twilight 6:39 AM MDT 7:11 PM MDT
Nautical Twilight 6:09 AM MDT 7:41 PM MDT
Astronomical Twilight 5:38 AM MDT 8:12 PM MDT
Moon 6:43 AM MDT (10/4) 6:30 PM MDT (10/4)
Length of Visible Light 12h 31m
Length of Day
11h 39m
Waning Crescent, 0% of the Moon is Illuminated
Oct 4
Waning Crescent
Oct 4
New
Oct 11
First Quarter
Oct 18
Full
Oct 26
Last Quarter

Hourly Weather History & Observations

Time (MDT) Temp. Windchill Dew Point Humidity Pressure Visibility Wind Dir Wind Speed Gust Speed Precip Events Conditions
12:04 AM 32.0 °F 20.1 °F 19.4 °F 60% 30.04 in 10.0 mi SSW 19.6 mph 40.3 mph N/A   Overcast
12:24 AM 32.0 °F 19.2 °F 19.4 °F 60% 30.02 in 10.0 mi SW 23.0 mph 42.6 mph N/A   Overcast
12:45 AM 32.0 °F 19.2 °F 19.4 °F 60% 30.01 in 10.0 mi SW 23.0 mph 33.4 mph N/A   Overcast
1:05 AM 32.0 °F 18.9 °F 19.4 °F 60% 30.01 in 10.0 mi SW 24.2 mph 38.0 mph N/A   Overcast
1:25 AM 32.0 °F 18.4 °F 19.4 °F 60% 30.00 in 10.0 mi SW 26.5 mph 40.3 mph N/A   Overcast
1:45 AM 32.0 °F 19.2 °F 19.4 °F 60% 30.01 in 10.0 mi SW 23.0 mph 40.3 mph N/A   Overcast
2:05 AM 30.2 °F 14.7 °F 21.2 °F 69% 30.00 in 10.0 mi SW 32.2 mph 49.5 mph N/A   Overcast
2:25 AM 30.2 °F 14.3 °F 23.0 °F 75% 29.99 in 10.0 mi SW 34.5 mph 55.2 mph N/A   Overcast
2:45 AM 30.2 °F 14.5 °F 23.0 °F 75% 29.98 in 10.0 mi SSW 33.4 mph 55.2 mph N/A   Overcast
3:05 AM 28.4 °F 10.8 °F 23.0 °F 80% 29.99 in 10.0 mi SW 40.3 mph 63.3 mph N/A   Overcast
3:25 AM 28.4 °F 12.0 °F 23.0 °F 80% 29.99 in 10.0 mi SW 33.4 mph 47.2 mph N/A   Overcast
3:45 AM 26.6 °F 8.9 °F 23.0 °F 86% 29.99 in 7.0 mi SW 36.8 mph 54.1 mph N/A   Overcast
4:05 AM 26.6 °F 9.3 °F 23.0 °F 86% 29.99 in 10.0 mi SW 34.5 mph 56.4 mph N/A   Overcast
4:25 AM 24.8 °F 7.3 °F 21.2 °F 86% 29.99 in 4.0 mi SW 32.2 mph 48.3 mph N/A Snow Light Snow
4:45 AM 23.0 °F 6.3 °F 21.2 °F 93% 30.01 in 10.0 mi SSW 26.5 mph 48.3 mph N/A   Overcast
5:05 AM 23.0 °F 5.7 °F 19.4 °F 86% 30.01 in 4.0 mi SW 28.8 mph 48.3 mph N/A Snow Light Snow
5:25 AM 23.0 °F 6.3 °F 15.8 °F 74% 30.01 in 10.0 mi SW 26.5 mph 47.2 mph N/A   Overcast
5:45 AM 21.2 °F 4.9 °F 17.6 °F 86% 30.02 in 10.0 mi SW 23.0 mph 35.7 mph N/A   Overcast
6:05 AM 21.2 °F 4.5 °F 17.6 °F 86% 30.03 in 10.0 mi SW 24.2 mph 36.8 mph N/A   Mostly Cloudy
6:25 AM 19.4 °F 4.5 °F 17.6 °F 93% 30.04 in 10.0 mi SW 17.3 mph 33.4 mph N/A   Mostly Cloudy
6:45 AM 19.4 °F 4.1 °F 17.6 °F 93% 30.04 in 10.0 mi SW 18.4 mph 29.9 mph N/A   Overcast
7:05 AM 17.6 °F 0.9 °F 17.6 °F 100% 30.05 in 10.0 mi SW 20.7 mph 26.5 mph N/A   Overcast
7:25 AM 17.6 °F 0.5 °F 17.6 °F 100% 30.05 in 10.0 mi SW 21.9 mph 26.5 mph N/A   Mostly Cloudy
7:45 AM 17.6 °F 0.9 °F 15.8 °F 93% 30.05 in 10.0 mi SW 20.7 mph 27.6 mph N/A   Scattered Clouds
8:05 AM 17.6 °F 2.7 °F 14.0 °F 86% 30.06 in 10.0 mi SW 16.1 mph 29.9 mph N/A   Clear
8:25 AM 19.4 °F 6.6 °F 15.8 °F 86% 30.06 in 10.0 mi SW 12.7 mph - N/A   Scattered Clouds
8:45 AM 19.4 °F 7.9 °F 17.6 °F 93% 30.07 in 10.0 mi SW 10.4 mph 17.3 mph N/A   Mostly Cloudy
9:05 AM 21.2 °F 9.5 °F 15.8 °F 80% 30.07 in 10.0 mi SW 11.5 mph 19.6 mph N/A   Scattered Clouds
9:25 AM 21.2 °F 8.9 °F 15.8 °F 80% 30.08 in 10.0 mi SW 12.7 mph - N/A   Clear
9:45 AM 21.2 °F 10.9 °F 17.6 °F 86% 30.08 in 10.0 mi SSW 9.2 mph 18.4 mph N/A   Scattered Clouds
10:05 AM 23.0 °F 11.7 °F 17.6 °F 80% 30.09 in 10.0 mi SW 11.5 mph 17.3 mph N/A   Scattered Clouds
10:25 AM 23.0 °F 12.4 °F 17.6 °F 80% 30.10 in 10.0 mi SW 10.4 mph 20.7 mph N/A   Scattered Clouds
10:45 AM 24.8 °F 14.6 °F 17.6 °F 74% 30.11 in 10.0 mi SW 10.4 mph 18.4 mph N/A   Mostly Cloudy
11:05 AM 26.6 °F 15.7 °F 15.8 °F 64% 30.11 in 10.0 mi WSW 12.7 mph 21.9 mph N/A   Scattered Clouds
11:25 AM 26.6 °F 13.1 °F 14.0 °F 59% 30.12 in 10.0 mi SW 19.6 mph 26.5 mph N/A   Clear
11:45 AM 23.0 °F 11.1 °F 14.0 °F 68% 30.13 in 10.0 mi SSW 12.7 mph 23.0 mph N/A   Scattered Clouds
12:05 PM 24.8 °F 12.4 °F 14.0 °F 64% 30.13 in 10.0 mi SSW 15.0 mph 24.2 mph N/A   Mostly Cloudy
12:24 PM 24.8 °F 12.4 °F 14.0 °F 64% 30.14 in 10.0 mi SW 15.0 mph 23.0 mph N/A   Scattered Clouds
12:45 PM 26.6 °F 16.8 °F 14.0 °F 59% 30.14 in 10.0 mi SSW 10.4 mph 24.2 mph N/A   Scattered Clouds
1:04 PM 24.8 °F 11.9 °F 14.0 °F 64% 30.14 in 10.0 mi SSW 16.1 mph 24.2 mph N/A   Scattered Clouds
1:25 PM 26.6 °F 15.7 °F 12.2 °F 55% 30.14 in 10.0 mi SSW 12.7 mph 23.0 mph N/A   Mostly Cloudy
1:45 PM 26.6 °F 16.8 °F 12.2 °F 55% 30.14 in 10.0 mi SSW 10.4 mph 20.7 mph N/A   Mostly Cloudy
2:05 PM 26.6 °F 16.8 °F 12.2 °F 55% 30.14 in 10.0 mi SSW 10.4 mph 25.3 mph N/A   Overcast
2:25 PM 24.8 °F 10.0 °F 12.2 °F 59% 30.15 in 10.0 mi SW 21.9 mph 29.9 mph N/A   Overcast
2:44 PM 24.8 °F 12.9 °F 12.2 °F 59% 30.16 in 10.0 mi SSW 13.8 mph 26.5 mph N/A   Overcast
3:05 PM 24.8 °F 13.4 °F 12.2 °F 59% 30.16 in 10.0 mi SSW 12.7 mph 26.5 mph N/A   Overcast
3:25 PM 26.6 °F 16.2 °F 10.4 °F 51% 30.17 in 10.0 mi South 11.5 mph 25.3 mph N/A   Overcast
3:45 PM 28.4 °F 16.6 °F 8.6 °F 43% 30.17 in 10.0 mi SW 16.1 mph 25.3 mph N/A   Overcast
4:05 PM 28.4 °F 19.1 °F 8.6 °F 43% 30.17 in 10.0 mi SSW 10.4 mph 24.2 mph N/A   Overcast
4:25 PM 28.4 °F 18.0 °F 6.8 °F 40% 30.17 in 10.0 mi SSW 12.7 mph 26.5 mph N/A   Mostly Cloudy
4:45 PM 26.6 °F 14.7 °F 5.0 °F 40% 30.17 in 10.0 mi SW 15.0 mph 33.4 mph N/A   Mostly Cloudy
5:05 PM 28.4 °F 17.0 °F 6.8 °F 40% 30.17 in 10.0 mi SSW 15.0 mph 35.7 mph N/A   Mostly Cloudy
5:25 PM 28.4 °F 16.2 °F 6.8 °F 40% 30.18 in 10.0 mi SSW 17.3 mph 33.4 mph N/A   Scattered Clouds
5:45 PM 28.4 °F 16.6 °F 6.8 °F 40% 30.19 in 10.0 mi SSW 16.1 mph 32.2 mph N/A   Scattered Clouds
6:05 PM 26.6 °F 14.3 °F 6.8 °F 43% 30.19 in 10.0 mi SW 16.1 mph 26.5 mph N/A   Scattered Clouds
6:25 PM 24.8 °F 12.4 °F 6.8 °F 46% 30.19 in 10.0 mi SW 15.0 mph 28.8 mph N/A   Scattered Clouds
6:45 PM 23.0 °F 10.6 °F 6.8 °F 50% 30.19 in 10.0 mi SW 13.8 mph 26.5 mph N/A   Clear
7:05 PM 21.2 °F 8.3 °F 5.0 °F 50% 30.20 in 10.0 mi SW 13.8 mph 25.3 mph N/A   Clear
7:25 PM 21.2 °F 7.3 °F 5.0 °F 50% 30.20 in 10.0 mi SSW 16.1 mph 25.3 mph N/A   Scattered Clouds
7:45 PM 21.2 °F 7.8 °F 6.8 °F 54% 30.21 in 10.0 mi SW 15.0 mph 21.9 mph N/A   Clear
8:05 PM 19.4 °F 7.2 °F 8.6 °F 63% 30.22 in 10.0 mi SSW 11.5 mph 19.6 mph N/A   Clear
8:25 PM 19.4 °F 7.9 °F 8.6 °F 63% 30.22 in 10.0 mi SW 10.4 mph 18.4 mph N/A   Clear
8:45 PM 19.4 °F 8.6 °F 8.6 °F 63% 30.22 in 10.0 mi SW 9.2 mph 17.3 mph N/A   Clear
9:05 PM 17.6 °F 6.4 °F 8.6 °F 68% 30.22 in 10.0 mi SW 9.2 mph - N/A   Clear
9:25 PM 17.6 °F 5.0 °F 8.6 °F 68% 30.23 in 10.0 mi WSW 11.5 mph - N/A   Clear
9:45 PM 17.6 °F 7.3 °F 8.6 °F 68% 30.24 in 10.0 mi WSW 8.1 mph - N/A   Clear
10:05 PM 17.6 °F 7.3 °F 10.4 °F 73% 30.24 in 10.0 mi West 8.1 mph - N/A   Clear
10:25 PM 15.8 °F 6.1 °F 8.6 °F 73% 30.24 in 10.0 mi WSW 6.9 mph - N/A   Clear
10:45 PM 15.8 °F 7.2 °F 10.4 °F 79% 30.24 in 10.0 mi WNW 5.8 mph - N/A   Clear
11:05 PM 15.8 °F 5.1 °F 8.6 °F 73% 30.24 in 10.0 mi NNW 8.1 mph - N/A   Clear
11:25 PM 17.6 °F 9.3 °F 5.0 °F 58% 30.24 in 10.0 mi North 5.8 mph - N/A   Clear
11:45 PM 15.8 °F 5.1 °F 5.0 °F 62% 30.24 in 10.0 mi North 8.1 mph - N/A   Clear